Location: Unspecified
(39.6110°N, 77.4038°W)
Time: 10:56:17
(UTC-04:00)

Envisat - Visible Passes

Search period start: 17 July 2025 00:00
Search period end: 27 July 2025 00:00
Orbit: 761 x 763 km, 98.3° (Epoch: 16 July)

Date Brightness Start Highest point End Pass type
(mag) Time Alt. Az. Time Alt. Az. Time Alt. Az.
17 Jul 3.4 03:42:30 10° NNE 03:47:31 57° E 03:50:21 25° S visible
17 Jul 4.7 05:22:45 10° NNW 05:25:57 17° WNW 05:29:08 10° WSW visible
18 Jul 4.7 03:05:31 10° NE 03:09:38 25° E 03:12:10 17° SE visible
18 Jul 3.7 04:44:00 10° N 04:48:37 37° WNW 04:52:17 15° SW visible
19 Jul 2.9 04:05:59 10° NNE 04:11:04 84° WNW 04:14:05 25° SSW visible
20 Jul 3.9 03:28:32 10° NNE 03:33:20 41° E 03:35:53 24° SSE visible
20 Jul 4.4 05:08:05 10° NNW 05:11:59 23° WNW 05:15:51 10° WSW visible
21 Jul 5.1 02:51:57 10° NE 02:55:23 18° E 02:57:42 14° SE visible
21 Jul 3.3 04:29:41 10° N 04:34:34 50° WNW 04:37:50 20° SW visible
22 Jul 3.1 03:51:52 10° NNE 03:56:57 72° ESE 03:59:38 28° S visible
23 Jul 4.4 03:14:40 10° NE 03:19:07 30° E 03:21:25 21° SE visible
23 Jul 4.0 04:53:36 10° N 04:57:58 30° WNW 05:01:33 14° WSW visible
24 Jul 5.4 02:38:48 10° ENE 02:41:05 13° E 02:43:13 10° ESE visible
24 Jul 3.0 04:15:26 10° N 04:20:29 68° WNW 04:23:21 26° SSW visible
25 Jul 3.6 03:37:50 10° NNE 03:42:47 52° E 03:45:09 29° SSE visible
25 Jul 4.6 05:17:51 10° NNW 05:21:17 19° WNW 05:24:44 10° WSW visible
26 Jul 4.8 03:00:56 10° NE 03:04:53 22° E 03:06:57 18° SE visible
26 Jul 3.6 04:39:13 10° N 04:43:56 40° WNW 04:47:04 19° SW visible
